Ketchikan, AK

5:07 PM AKDT on September 24, 2018 (GMT -0800)
Ketchikan International

Weather History for PAKT - July, 2018

Change the Weather History Date:

Thursday, July 12, 2018

  Actual Average Record
Temperature  
Mean Temperature 56 °F -  
Max Temperature 61 °F 62 °F 86 °F (1952)
Min Temperature 53 °F 50 °F 42 °F (1983)
Degree Days  
Heating Degree Days 8    
Growing Degree Days 6 (Base 50)    
Moisture  
Dew Point 49 °F    
Average Humidity 78    
Maximum Humidity 88    
Minimum Humidity 63    
Precipitation  
Precipitation 0.19 in - - ()
Sea Level Pressure  
Sea Level Pressure 30.28 in    
Wind  
Wind Speed 3 mph (NW)    
Max Wind Speed 8 mph    
Max Gust Speed -    
Visibility 10 miles    
Events Rain    
Averages and records for this station are not official NWS values.
T = Trace of Precipitation, MM = Missing Value Source: NWS Daily Summary

Daily Weather History Graph

Daily Weather History Graph

Search for Another Location

Airport or City:

Astronomy

Jul. 12, 2018 Rise Set
Actual Time 4:22 AM AKDT 9:22 PM AKDT
Civil Twilight 3:27 AM AKDT 10:16 PM AKDT
Nautical Twilight 1:41 AM AKDT 11:59 PM AKDT
Astronomical Twilight Sun does not set Sun does not set
Moon 4:02 AM AKDT (7/12) 9:05 PM AKDT (7/12)
Length of Visible Light 18h 49m
Length of Day
17h 00m
Waning Crescent, 0% of the Moon is Illuminated
Jul 12
Waning Crescent
Jul 12
New
Jul 19
First Quarter
Jul 27
Full
Aug 4
Last Quarter

Hourly Weather History & Observations

Time (AKDT) Temp. Dew Point Humidity Pressure Visibility Wind Dir Wind Speed Gust Speed Precip Events Conditions
12:53 AM 54.0 °F 48.0 °F 80% 30.30 in 10.0 mi NW 3.5 mph - N/A   Overcast
1:23 AM 55.0 °F 48.0 °F 77% 30.29 in 10.0 mi Calm Calm - N/A   Mostly Cloudy
1:53 AM 54.0 °F 48.0 °F 80% 30.30 in 10.0 mi Calm Calm - N/A   Overcast
2:53 AM 54.0 °F 48.0 °F 80% 30.29 in 10.0 mi Calm Calm - N/A   Overcast
3:53 AM 54.0 °F 48.9 °F 83% 30.29 in 10.0 mi Calm Calm - N/A   Overcast
4:43 AM 54.0 °F 48.9 °F 83% 30.28 in 10.0 mi Calm Calm - N/A   Overcast
4:53 AM 54.0 °F 48.9 °F 83% 30.29 in 10.0 mi Calm Calm - N/A   Overcast
5:53 AM 54.0 °F 48.9 °F 83% 30.28 in 10.0 mi SSW 3.5 mph - N/A   Overcast
6:16 AM 53.6 °F 48.2 °F 82% 30.27 in 10.0 mi SW 3.5 mph - N/A   Overcast
6:53 AM 53.6 °F 50.0 °F 88% 30.28 in 10.0 mi Calm Calm - N/A   Overcast
7:53 AM 55.0 °F 50.0 °F 83% 30.28 in 10.0 mi Calm Calm - N/A   Overcast
8:53 AM 55.4 °F 50.0 °F 82% 30.28 in 10.0 mi ESE 4.6 mph - N/A   Overcast
9:53 AM 55.4 °F 50.0 °F 82% 30.28 in 10.0 mi SE 5.8 mph - N/A   Overcast
10:53 AM 57.2 °F 48.2 °F 72% 30.29 in 10.0 mi SE 6.9 mph - N/A   Overcast
11:53 AM 57.2 °F 48.2 °F 72% 30.29 in 10.0 mi ESE 6.9 mph - N/A   Overcast
12:53 PM 57.2 °F 50.0 °F 77% 30.29 in 10.0 mi ESE 5.8 mph - N/A Rain Light Rain
1:53 PM 60.8 °F 50.0 °F 68% 30.27 in 10.0 mi ESE 6.9 mph - N/A   Overcast
2:53 PM 57.9 °F 52.0 °F 81% 30.28 in 10.0 mi Calm Calm - 0.04 in Rain Light Rain
3:53 PM 55.9 °F 51.1 °F 84% 30.27 in 10.0 mi NNE 3.5 mph - 0.15 in Rain Light Rain
4:53 PM 60.8 °F 51.8 °F 72% 30.26 in 10.0 mi WNW 5.8 mph - N/A   Mostly Cloudy
5:53 PM 60.8 °F 48.2 °F 63% 30.25 in 10.0 mi NNW 8.1 mph - N/A   Overcast
6:53 PM 59.0 °F 48.2 °F 67% 30.25 in 10.0 mi NW 5.8 mph - N/A   Mostly Cloudy
7:53 PM 57.2 °F 48.2 °F 72% 30.25 in 10.0 mi NW 4.6 mph - N/A   Overcast
8:53 PM 55.9 °F 48.0 °F 75% 30.26 in 10.0 mi WNW 6.9 mph - N/A   Overcast
9:53 PM 55.0 °F 48.0 °F 77% 30.26 in 10.0 mi NW 5.8 mph - N/A   Overcast
10:53 PM 55.9 °F 48.9 °F 77% 30.26 in 10.0 mi NNW 6.9 mph - N/A   Overcast
11:53 PM 54.0 °F 48.0 °F 80% 30.26 in 10.0 mi NW 4.6 mph - N/A   Overcast